Stündliche Wetter Cedar City

Heute, 28 Oktober, Mittwoch

Zeit Temperatur Niederschläge Wind Luftdruck Luftfeuchtigkeit
00:00 -4°C° 0 mm 2 m/S 609 mmHg 58%
01:00 -4°C° 0 mm 2 m/S 609 mmHg 57%
02:00 -4°C° 0 mm 2 m/S 609 mmHg 57%
03:00 -4°C° 0 mm 2 m/S 609 mmHg 56%
04:00 -4°C° 0 mm 2 m/S 609 mmHg 56%
05:00 -3°C° 0 mm 2 m/S 610 mmHg 51%
06:00 -1°C° 0 mm 2 m/S 611 mmHg 47%
07:00 +2°C° 0 mm 2 m/S 612 mmHg 42%
08:00 +4°C° 0 mm 3 m/S 612 mmHg 36%
09:00 +7°C° 0 mm 4 m/S 613 mmHg 30%
10:00 +11°C° 0 mm 4 m/S 614 mmHg 24%
11:00 +12°C° 0 mm 5 m/S 614 mmHg 22%
12:00 +13°C° 0 mm 6 m/S 614 mmHg 20%
13:00 +15°C° 0 mm 6 m/S 613 mmHg 18%
14:00 +13°C° 0 mm 6 m/S 613 mmHg 20%
15:00 +12°C° 0 mm 5 m/S 612 mmHg 21%
16:00 +10°C° 0 mm 4 m/S 612 mmHg 23%
17:00 +7°C° 0 mm 4 m/S 611 mmHg 29%
18:00 +4°C° 0 mm 3 m/S 611 mmHg 36%
19:00 +2°C° 0 mm 3 m/S 610 mmHg 42%
20:00 +3°C° 0 mm 2 m/S 610 mmHg 43%
21:00 +2°C° 0 mm 2 m/S 611 mmHg 44%
22:00 +2°C° 0 mm 2 m/S 611 mmHg 45%
23:00 +2°C° 0 mm 2 m/S 611 mmHg 45%

Morgen, 29 Oktober, Donnerstag

Zeit Temperatur Niederschläge Wind Luftdruck Luftfeuchtigkeit
00:00 +2°C° 0 mm 2 m/S 610 mmHg 46%
01:00 +2°C° 0 mm 2 m/S 610 mmHg 46%
02:00 +1°C° 0 mm 2 m/S 610 mmHg 48%
03:00 +1°C° 0 mm 2 m/S 610 mmHg 49%
04:00 +1°C° 0 mm 2 m/S 610 mmHg 50%
05:00 +3°C° 0 mm 1 m/S 611 mmHg 46%
06:00 +5°C° 0 mm 1 m/S 612 mmHg 41%
07:00 +7°C° 0 mm 1 m/S 613 mmHg 36%
08:00 +10°C° 0 mm 1 m/S 614 mmHg 30%
09:00 +13°C° 0 mm 2 m/S 615 mmHg 25%
10:00 +16°C° 0 mm 2 m/S 616 mmHg 19%
11:00 +17°C° 0 mm 2 m/S 616 mmHg 18%
12:00 +18°C° 0 mm 2 m/S 616 mmHg 16%
13:00 +19°C° 0 mm 3 m/S 616 mmHg 15%
14:00 +17°C° 0 mm 3 m/S 615 mmHg 17%
15:00 +16°C° 0 mm 2 m/S 614 mmHg 18%
16:00 +14°C° 0 mm 2 m/S 613 mmHg 20%
17:00 +10°C° 0 mm 2 m/S 612 mmHg 28%
18:00 +7°C° 0 mm 2 m/S 612 mmHg 36%
19:00 +5°C° 0 mm 1 m/S 611 mmHg 44%
20:00 +5°C° 0 mm 1 m/S 611 mmHg 44%
21:00 +4°C° 0 mm 1 m/S 610 mmHg 44%
22:00 +4°C° 0 mm 1 m/S 610 mmHg 44%
23:00 +3°C° 0 mm 1 m/S 610 mmHg 44%

übermorgen, 30 Oktober, Freitag

Zeit Temperatur Niederschläge Wind Luftdruck Luftfeuchtigkeit
00:00 +3°C° 0 mm 1 m/S 610 mmHg 43%
01:00 +3°C° 0 mm 1 m/S 610 mmHg 43%
02:00 +2°C° 0 mm 1 m/S 609 mmHg 43%
03:00 +2°C° 0 mm 1 m/S 609 mmHg 42%
04:00 +2°C° 0 mm 1 m/S 609 mmHg 42%
05:00 +4°C° 0 mm 1 m/S 610 mmHg 38%
06:00 +4°C° 0 mm 0 m/S 611 mmHg 33%
07:00 +6°C° 0 mm 0 m/S 612 mmHg 28%
08:00 +10°C° 0 mm 1 m/S 613 mmHg 23%
09:00 +13°C° 0 mm 1 m/S 614 mmHg 18%
10:00 +18°C° 0 mm 1 m/S 615 mmHg 13%
11:00 +18°C° 0 mm 2 m/S 615 mmHg 12%
12:00 +18°C° 0 mm 2 m/S 615 mmHg 11%
13:00 +19°C° 0 mm 3 m/S 614 mmHg 10%
14:00 +17°C° 0 mm 2 m/S 613 mmHg 12%
15:00 +15°C° 0 mm 2 m/S 612 mmHg 15%
16:00 +13°C° 0 mm 1 m/S 611 mmHg 18%
17:00 +11°C° 0 mm 1 m/S 611 mmHg 23%
18:00 +9°C° 0 mm 1 m/S 610 mmHg 28%
19:00 +6°C° 0 mm 2 m/S 610 mmHg 33%
20:00 +6°C° 0 mm 2 m/S 610 mmHg 35%
21:00 +5°C° 0 mm 2 m/S 610 mmHg 37%
22:00 +6°C° 0 mm 1 m/S 610 mmHg 39%
23:00 +6°C° 0 mm 1 m/S 610 mmHg 39%

31 Oktober, Samstag

Zeit Temperatur Niederschläge Wind Luftdruck Luftfeuchtigkeit
00:00 +5°C° 0 mm 1 m/S 610 mmHg 38%
01:00 +5°C° 0 mm 1 m/S 610 mmHg 38%
02:00 +5°C° 0 mm 1 m/S 610 mmHg 38%
03:00 +4°C° 0 mm 1 m/S 610 mmHg 38%
04:00 +4°C° 0 mm 1 m/S 610 mmHg 38%
05:00 +6°C° 0 mm 1 m/S 611 mmHg 33%
06:00 +7°C° 0 mm 1 m/S 612 mmHg 27%
07:00 +9°C° 0 mm 1 m/S 613 mmHg 21%
08:00 +12°C° 0 mm 1 m/S 614 mmHg 17%
09:00 +15°C° 0 mm 1 m/S 616 mmHg 13%
10:00 +20°C° 0 mm 1 m/S 617 mmHg 9%
11:00 +19°C° 0 mm 2 m/S 617 mmHg 9%
12:00 +20°C° 0 mm 2 m/S 617 mmHg 9%
13:00 +21°C° 0 mm 2 m/S 617 mmHg 8%
14:00 +19°C° 0 mm 2 m/S 616 mmHg 10%
15:00 +17°C° 0 mm 2 m/S 615 mmHg 12%
16:00 +15°C° 0 mm 2 m/S 615 mmHg 14%
17:00 +13°C° 0 mm 2 m/S 614 mmHg 21%
18:00 +9°C° 0 mm 2 m/S 614 mmHg 27%
19:00 +8°C° 0 mm 1 m/S 613 mmHg 34%
20:00 +7°C° 0 mm 1 m/S 613 mmHg 35%
21:00 +7°C° 0 mm 1 m/S 614 mmHg 36%
22:00 +6°C° 0 mm 1 m/S 614 mmHg 37%
23:00 +6°C° 0 mm 1 m/S 614 mmHg 38%

1 November, Sonntag

Zeit Temperatur Niederschläge Wind Luftdruck Luftfeuchtigkeit
00:00 +6°C° 0 mm 1 m/S 614 mmHg 38%
01:00 +5°C° 0 mm 1 m/S 614 mmHg 39%
02:00 +5°C° 0 mm 1 m/S 614 mmHg 39%
03:00 +5°C° 0 mm 1 m/S 614 mmHg 39%
04:00 +4°C° 0 mm 1 m/S 614 mmHg 40%
05:00 +6°C° 0 mm 1 m/S 615 mmHg 35%
06:00 +7°C° 0 mm 1 m/S 616 mmHg 29%
07:00 +9°C° 0 mm 1 m/S 617 mmHg 24%
08:00 +12°C° 0 mm 1 m/S 619 mmHg 20%
09:00 +15°C° 0 mm 1 m/S 620 mmHg 16%
10:00 +20°C° 0 mm 1 m/S 621 mmHg 11%
11:00 +21°C° 0 mm 1 m/S 621 mmHg 11%
12:00 +21°C° 0 mm 2 m/S 621 mmHg 11%
13:00 +21°C° 0 mm 2 m/S 621 mmHg 10%
14:00 +19°C° 0 mm 2 m/S 620 mmHg 13%
15:00 +18°C° 0 mm 1 m/S 619 mmHg 16%
16:00 +15°C° 0 mm 1 m/S 618 mmHg 19%
17:00 +13°C° 0 mm 1 m/S 618 mmHg 26%
18:00 +10°C° 0 mm 1 m/S 617 mmHg 33%
19:00 +8°C° 0 mm 1 m/S 616 mmHg 40%
20:00 +8°C° 0 mm 1 m/S 616 mmHg 41%
21:00 +7°C° 0 mm 1 m/S 617 mmHg 41%
22:00 +7°C° 0 mm 1 m/S 617 mmHg 41%
23:00 +7°C° 0 mm 1 m/S 616 mmHg 41%

2 November, Montag

Zeit Temperatur Niederschläge Wind Luftdruck Luftfeuchtigkeit
00:00 +7°C° 0 mm 1 m/S 616 mmHg 42%
01:00 +6°C° 0 mm 1 m/S 616 mmHg 42%
02:00 +6°C° 0 mm 1 m/S 616 mmHg 42%
03:00 +6°C° 0 mm 1 m/S 616 mmHg 42%
04:00 +5°C° 0 mm 1 m/S 616 mmHg 42%
05:00 +7°C° 0 mm 1 m/S 617 mmHg 37%
06:00 +8°C° 0 mm 1 m/S 617 mmHg 32%
07:00 +10°C° 0 mm 1 m/S 618 mmHg 26%
08:00 +13°C° 0 mm 1 m/S 619 mmHg 22%
09:00 +16°C° 0 mm 1 m/S 620 mmHg 17%
10:00 +20°C° 0 mm 1 m/S 621 mmHg 12%
11:00 +20°C° 0 mm 2 m/S 621 mmHg 12%
12:00 +21°C° 0 mm 2 m/S 620 mmHg 12%
13:00 +23°C° 0 mm 2 m/S 620 mmHg 11%
14:00 +20°C° 0 mm 2 m/S 619 mmHg 14%
15:00 +18°C° 0 mm 1 m/S 618 mmHg 17%
16:00 +15°C° 0 mm 1 m/S 616 mmHg 20%
17:00 +13°C° 0 mm 1 m/S 616 mmHg 27%
18:00 +11°C° 0 mm 1 m/S 615 mmHg 34%
19:00 +8°C° 0 mm 2 m/S 614 mmHg 40%
20:00 +8°C° 0 mm 1 m/S 614 mmHg 41%
21:00 +8°C° 0 mm 1 m/S 614 mmHg 43%
22:00 +7°C° 0 mm 1 m/S 613 mmHg 44%
23:00 +7°C° 0 mm 1 m/S 613 mmHg 44%
Mehr zeigen